This demonstration page uses our WeatherBlox Daily Observations layout. Learn more.

Left ArrowRight Arrow

Hourly Observations for June 22, 2018

Temp ( °F °C ) Dew Point ( °F °C ) Humidity (%) Winds ( mph kmh ) Pressure ( in mb ) Visibility ( mi km ) Precip ( " mm )
12:53 am 00:53 Cloudy 62 16.7 59 15 90 90 N 9 15 29.93 1014 10 16 0.00 0.00
1:53 am 01:53 Mostly Clear 61 16.1 59 15 93 93 N 7 11 29.92 1013 10 16 0.00 0.00
2:12 am 02:12 Mostly Cloudy 61 16 59 15 94 94 NNW 8 13 29.91 1013 10 16 0.00 0.00
2:35 am 02:35 Partly Cloudy 61 16 57 14 88 88 N 8 13 29.91 1013 10 16 0.00 0.00
2:53 am 02:53 Mostly Clear 59 15 57 13.9 93 93 NNE 8 13 29.91 1013 10 16 0.00 0.00
3:11 am 03:11 Mostly Cloudy 61 16 57 14 88 88 N 5 7 29.91 1013 10 16 0.00 0.00
3:44 am 03:44 Cloudy 61 16 57 14 88 88 N 6 9 29.91 1013 10 16 0.00 0.00
3:53 am 03:53 Cloudy 61 16.1 58 14.4 90 90 NNW 7 11 29.92 1013 10 16 0.00 0.00
4:53 am 04:53 Cloudy 61 16.1 58 14.4 90 90 N 7 11 29.90 1013 10 16 0.00 0.00
5:53 am 05:53 Cloudy 60 15.6 57 13.9 90 90 NNE 6 9 29.90 1012 10 16 0.00 0.00
6:16 am 06:16 Partly Cloudy 59 15 57 14 94 94 NNW 6 9 29.91 1013 10 16 0.00 0.00
6:53 am 06:53 Sunny 58 14.4 57 13.9 97 97 NNW 6 9 29.93 1013 10 16 0.00 0.00
7:53 am 07:53 Sunny 60 15.6 57 13.9 90 90 N 12 19 29.93 1013 10 16 0.00 0.00
8:53 am 08:53 Sunny 64 17.8 58 14.4 81 81 NE 8 13 29.93 1014 10 16 0.00 0.00
9:53 am 09:53 Mostly Sunny 66 18.9 57 13.9 73 73 NE 7 11 29.93 1014 10 16 0.00 0.00
10:08 am 10:08 Mostly Cloudy 66 19 57 14 73 73 N 7 11 29.91 1013 10 16 0.00 0.00
10:53 am 10:53 Mostly Cloudy 68 20 58 14.4 70 70 NE 8 13 29.91 1013 10 16 0.00 0.00
11:53 am 11:53 Cloudy 69 20.6 59 15 70 70 NE 10 17 29.91 1013 10 16 0.00 0.00
12:53 pm 12:53 Cloudy 69 20.6 60 15.6 73 73 ENE 7 11 29.91 1013 10 16 0.00 0.00
1:53 pm 13:53 Cloudy 68 20 59 15 73 73 ENE 5 7 29.91 1013 10 16 0.00 0.00
2:53 pm 14:53 Cloudy 68 20 60 15.6 76 76 ENE 7 11 29.89 1012 10 16 0.00 0.00
3:53 pm 15:53 Cloudy 70 21.1 61 16.1 73 73 NE 8 13 29.86 1011 10 16 0.00 0.00
4:53 pm 16:53 Mostly Cloudy 70 21.1 61 16.1 73 73 E 10 17 29.83 1010 10 16 0.00 0.00
5:53 pm 17:53 Cloudy 69 20.6 60 15.6 73 73 ENE 9 15 29.83 1010 10 16 0.00 0.00
6:53 pm 18:53 Mostly Cloudy 68 20 60 15.6 76 76 ESE 5 7 29.83 1010 10 16 0.00 0.00
7:49 pm 19:49 Mostly Cloudy 66 19 61 16 83 83 ESE 7 11 29.80 1009 10 16 0.00 0.00
7:53 pm 19:53 Partly Cloudy 67 19.4 60 15.6 79 79 ESE 7 11 29.83 1010 10 16 0.00 0.00
8:53 pm 20:53 Sunny 66 18.9 59 15 78 78 ESE 9 15 29.79 1009 10 16 0.00 0.00
9:53 pm 21:53 Clear 65 18.3 59 15 81 81 ESE 10 17 29.78 1009 10 16 0.00 0.00
10:53 pm 22:53 Clear 65 18.3 59 15 81 81 SSE 5 7 29.81 1010 10 16 0.00 0.00
11:53 pm 23:53 Clear 64 17.8 60 15.6 87 87 SSE 9 15 29.81 1009 10 16 0.00 0.00

Powered by AerisWeather